IUS R/B(2), 16119

Orbit data source: Space-Track

IUS R/B(2), 16119 is space debris in GEO originally from a launch on Thu, 03 Oct 1985 UTC launched from the Air Force Eastern Test Range (AFETR). Debris objects in space refer to the collection of defunct objects orbiting the Earth. Examples of debris include non-operational satellites, rocket bodies, and fragments generated from explosions, collisions, or faulty payload assembly.

Not visible in the next 10 days
Identifier
16119, 1985-092E
Orbit
GEO
Country
Flag of USUS
Related business
Manufacturer
UTC CSD
Mission
Spacecraft
Bus & Motor
ORBUS 6, Unknown motor
Mass
~1,100 kg wet, ~1,100 kg dry
Launch date (UTC)
1985-10-03 (40 years ago)
Launch vehicle
Unknown
Launch site
Air Force Eastern Test Range (AFETR)
Object type
Payload
Rocket body
Debris
Shape & HBR
Unknown
Radar Cross Section
Large (>1 m²)

Expand to show TLE details & history
Last TLE update: 1 day ago

TLE from 1 day ago
0 IUS R/B(2)
1 16119U 85092E   25348.33511398 -.00000310  00000-0  00000-0 0  9992
2 16119  10.3826 316.1280 0056877 178.2853 181.7484  1.01087300 24186
Epoch: 2025-12-14T08:02Z
TLE epoch observation values (Epoch: 2025-12-14T08:02:33.847Z)
Latitude
Longitude
112.21965°
Altitude
35,796.906 km
Speed
3.066 km/s
True Right ascension
21h 04m 26s
True Declination
0° 00' 00"
Sunlit
Object was in daylight at epoch
Visualization orbit readout
Latitude
Unknown
Longitude
Unknown
Altitude
Unknown
Speed
Unknown
Apparent Right ascension
Unknown
Apparent Declination
Unknown
Sunlit
N/A
Visualization observer readout
Local Sidereal Time
13:22:57
Azimuth
Unknown
Elevation
Unknown
Doppler factor
Unknown
Orbital elements
Apogee altitude
35,799.074 km
Perigee altitude
35,322.005 km
Semi-major axis
41,938.677 km
Eccentricity
0.00569
Inclination
10.3826°
RAAN
316.128°
Arg. of periapsis
178.2853°
True anomaly
181.72865°
Mean anomaly
181.7484°
Eccentric anomaly
181.73851°
Mean motion
0.25271 °/min
Orbital period
1,424.56 mins
BSTAR
0
Loading maneuver chart data...
Computing Atmospheric mass density...
Loading historical data...
Loading historical data...
Loading historical data...
Loading historical data...
Loading historical data...
Loading historical data...
Loading historical data...
Other satellites on launch #92 in the year 1985 (1985-10-03 UTC)

Documentation

Showing up to 5 results
|